Tracking 30995 objects as of 7-Jul-2025
HD Live streaming from Space Station
objects crossing your sky now

OPS 4682 DEB

Track OPS 4682 DEB now!
10-day predictions


NORAD ID: 19664
Int'l Code: 1965-027AX
Perigee: 1,235.2 km
Apogee: 1,275.6 km
Inclination: 90.2 °
Period: 110.5 minutes
Semi major axis: 7626 km
RCS: 0.0123 m2 (small)
Launch date: April 3, 1965
Source: United States (US)
Launch site: AIR FORCE WESTERN TEST RANGE (AFWTR)

Note: This is SATELLITE DEBRIS
Your satellite tracking list
COSMOS 1275 DEB
Track 1 satellite(s)




NASA's NSSDC Master Catalog

Two Line Element Set (TLE):
1 19664U 65027AX  25187.43463167  .00000685  00000-0  21384-2 0  9992
2 19664  90.2285 350.1448 0026507  34.5642 354.7644 13.03540797 11489
Source of the keplerian elements: AFSPC